Regional Weather Roundup
Issued by NWS

Home | Current Version | Previous Version | Text Only | Print | Product List | Glossary On
Versions: 1 2 3 4 5 6 7 8 9 10 11 12 13 14 15 16 17 18 19 20 21 22 23 24 25 26 27 28 29 30 31 32 33 34 35 36 37 38 39 40 41 42 43 44 45 46 47 48 49 50
000
ASUS43 KLOT 061321
RWRIL

ILLINOIS REGIONAL WEATHER ROUNDUP
NATIONAL WEATHER SERVICE CHICAGO/ROMEOVILLE IL
800 AM CDT MON JUL 06 2015

NOTE: "FAIR" INDICATES FEW OR NO CLOUDS BELOW 12,000 FEET WITH NO
SIGNIFICANT WEATHER AND/OR OBSTRUCTIONS TO VISIBILITY.

* THESE STATIONS ARE NOT UNDER NWS QUALITY CONTROL. THEY ALSO MAY NOT
  REPORT WEATHER SUCH AS PRECIPITATION OR FOG.

ILZ001-002-007-009-015-016-024-061400-
NORTHWEST ILLINOIS

CITY           SKY/WX    TMP DP  RH WIND       PRES   REMARKS
MOLINE         CLOUDY    75  69  81 S8        29.91S HAZE
STERLING*      CLOUDY    72  70  94 S3        29.95R
SAVANNA*       CLOUDY    72  67  87 S9        29.92R HAZE
$$

ILZ003-004-008-010-011-017-018-061400-
NORTH CENTRAL ILLINOIS

CITY           SKY/WX    TMP DP  RH WIND       PRES   REMARKS
ROCKFORD       CLOUDY    72  66  81 S9        29.95F HAZE
FREEPORT*      CLOUDY    70  67  92 S12       29.94S FOG
ROCHELLE*      PTSUNNY   68  66  93 SE9       29.95F FOG
DE KALB*       PTSUNNY   68  64  89 S9        29.98F FOG
PERU*          PTSUNNY   72  66  83 S10       29.96F HAZE
$$

ILZ005-006-012>014-019>023-061400-
NORTHEAST ILLINOIS

CITY           SKY/WX    TMP DP  RH WIND       PRES   REMARKS
CHICAGO-OHARE  MOSUNNY   72  65  78 S8        29.98F HAZE
CHICAGO-MIDWAY MOSUNNY   74  66  76 S9        29.99F
AURORA         PTSUNNY   72  65  78 S12       29.98F HAZE
LANSING*       SUNNY     71  65  82 S9        30.02F HAZE
JOLIET*        MOSUNNY   73  68  86 S5        29.99F FOG
WAUKEGAN       PTSUNNY   72  64  76 S13       29.96F HAZE
DUPAGE AIRPORT PTSUNNY   72  66  81 S9        29.97F HAZE
KANKAKEE*      SUNNY     72  68  87 S7        30.04S
WHEELING       MOSUNNY   73  65  75 S9        29.99F
MORRIS*        MOSUNNY   71  66  84 S8        29.96F HAZE
ROMEOVILLE*    MOSUNNY   71  65  83 S9        29.99F HAZE
NORTHERLY ISL    N/A     73  64  73 S6          N/A
$$

LMZ740>746-061400-
SOUTHERN LAKE MICHIGAN

STATION/POSITION SKY/WX   TEMP    WIND        PRES    VSBY  WAVE
                          AIR SEA DIR/SP/G                  HT/PER
                          (F)     (DEG/KT/KT) (MB)    (MI)  (FT/S)
HARRISON CRIB              70     150/ 13/ 14   N/A
BURNHAM HARBOR             73     140/  7/ 11   N/A
CALUMET HARBOR             69     170/  6/  9   N/A
BURNS HARBOR               70     180/  7/ 11 1017.6R
MICHIGAN CITY              70     160/ 12/ 15   N/A
MICHIGAN CITY 6N           68 66  190/  8/ 10   N/A           1
ST. JOSEPH                 67 65  210/  8/  8   N/A           1/ 2
$$

ILZ025>027-034>036-040-047-049-050-058-095>099-061400-
WEST-CENTRAL ILLINOIS

CITY           SKY/WX    TMP DP  RH WIND       PRES   REMARKS
QUINCY         CLOUDY    76  72  87 S12       29.95F
GALESBURG*     CLOUDY    73  70  91 S8        29.94S FOG
MACOMB*        PTSUNNY   73  71  94 S8        29.97S FOG
JACKSONVILLE*  PTSUNNY   76  72  85 S13       29.98S FOG
PITTSFIELD*    PTSUNNY   75  72  89 S6        29.98F FOG
$$

ILZ028>032-037-038-041>044-048-051>054-059>061-061400-
CENTRAL ILLINOIS

CITY           SKY/WX    TMP DP  RH WIND       PRES   REMARKS
PONTIAC        MOSUNNY   72  69  91 SE8       30.00F FOG
BLOOMINGTON    SUNNY     73  69  87 S13       30.03S FOG
DECATUR        SUNNY     73  66  78 S12       30.03R HAZE
PEORIA         MOSUNNY   74  67  78 S13       29.97F HAZE
LACON*         PTSUNNY   73  67  83 S6        29.95F HAZE
LINCOLN*       SUNNY     73  67  81 S9        30.00F HAZE
SPRINGFIELD    MOSUNNY   76  70  82 S12       30.00S
TAYLORVILLE    MOSUNNY   72  70  94 S5        30.02S FOG
$$

ILZ033-039-045-046-055>057-062-063-061400-
EAST-CENTRAL ILLINOIS

CITY           SKY/WX    TMP DP  RH WIND       PRES   REMARKS
CHAMPAIGN      SUNNY     72  68  87 S7        30.05S FOG
DANVILLE*      SUNNY     70  69  95 S3        30.04R FOG
RANTOUL*       MOSUNNY   71  69  92 S5        30.05S FOG
MATTOON        PTSUNNY   72  68  87 S8        30.06R FOG
PARIS*           N/A     71  70  98 SE6       30.07S FOG
$$

ILZ079-100>102-061400-
SOUTHWEST ILLINOIS

CITY           SKY/WX    TMP DP  RH WIND       PRES   REMARKS
ALTON          PTSUNNY   73 N/A N/A S10       30.03R FOG
BELLEVILLE     MOSUNNY   74  74 100 S9        30.02S
CAHOKIA*       SUNNY     76  71  85 S8        30.02S
SPARTA*        CLOUDY    74  71  92 S10G16    30.06S
$$

ILZ064>066-069>071-074>076-080>082-084>086-088>090-092>094-061400-
SOUTH-CENTRAL ILLINOIS

CITY           SKY/WX    TMP DP  RH WIND       PRES   REMARKS
CARBONDALE     CLOUDY    75  71  87 S8        30.07R
CAIRO*         CLOUDY    74  72  93 S5        30.10R
EFFINGHAM*     MOSUNNY   72  66  83 SE6       30.07S HAZE
MARION         CLOUDY    75  73  94 S9        30.09R
MT. VERNON     CLOUDY    73  68  83 SW12      30.08R
CENTRALIA*     CLOUDY    72  69  90 S10G17    30.06R FOG
SALEM*         SUNNY     75  71  85 S6        30.06R FOG
$$

ILZ067-068-072-073-078-083-087-091-061400-
SOUTHEAST ILLINOIS

CITY           SKY/WX    TMP DP  RH WIND       PRES   REMARKS
LAWRENCEVILLE  SUNNY     72  69  90 S6        30.07F FOG
FLORA*         SUNNY     72  69  93 SE5       30.06F FOG
FAIRFIELD*     SUNNY     74  72  91 CALM      30.06F FOG
HARRISBURG*    PTSUNNY   72  72 100 CALM      30.08F FOG
ROBINSON*      SUNNY     71  69  93 S5        30.08S FOG
CARMI*         SUNNY     74  68  82 CALM      30.07F HAZE
$$

ABBREVIATIONS USED IN REMARKS
   TC - TEMPERATURE IN CELSIUS
  WCI - WIND CHILL INDEX
   HX - HEAT INDEX
  VSB - VISIBILITY
$$




USA.gov is the U.S. government's official web portal to all federal, state and local government web resources and services.